Regional Weather Roundup
Issued by NWS

Home | Current Version | Previous Version | Text Only | Print | Product List | Glossary On
Versions: 1 2 3 4 5 6 7 8 9 10 11 12 13 14 15 16 17 18 19 20 21 22 23 24 25 26 27 28 29 30 31 32 33 34 35 36 37 38 39 40 41 42 43 44 45 46 47 48 49 50
000
ASUS43 KBIS 102002
RWRND

NORTH DAKOTA REGIONAL WEATHER ROUNDUP
NATIONAL WEATHER SERVICE BISMARCK ND
200 PM CST SAT DEC 10 2016

NOTE: "FAIR" INDICATES FEW OR NO CLOUDS BELOW 12,000 FEET WITH NO
SIGNIFICANT WEATHER AND/OR OBSTRUCTIONS TO VISIBILITY.


NDZ001>003-009>011-017-102100-
NORTHWEST NORTH DAKOTA

CITY           SKY/WX    TMP DP  RH WIND       PRES   REMARKS
WILLISTON      LGT SNOW   1  -6  72 E12       30.05F WCI -16
MINOT          CLOUDY    -9 -13  83 E6        30.17F WCI -22
MINOT AFB      CLOUDY   -11 -16  77 E8        30.17F WCI -27
$$

NDZ018>021-031>035-040>046-102100-
SOUTHWEST NORTH DAKOTA

CITY           SKY/WX    TMP DP  RH WIND       PRES   REMARKS
BISMARCK       LGT SNOW  -6  -9  86 E9        30.16F FOG     WCI -23
DICKINSON      CLOUDY    -2  -8  76 SE15      29.94F WCI -22
GARRISON         N/A     -6 -10  83 E12       30.12F WCI -25
HETTINGER ARPT CLOUDY    -2  -6  83 E15       29.94F WCI -22
$$

NDZ004>008-012>016-024-026-027-054-102100-
NORTHEAST NORTH DAKOTA

CITY           SKY/WX    TMP DP  RH WIND       PRES   REMARKS
GRAND FORKS    PTSUNNY   -2  -9  72 S6        30.37F WCI -14
GRND FRKS AFB  CLOUDY    -3 -10  72 SE5       30.36F WCI -14
DEVILS LAKE    SUNNY     -5  -9  83 SE8       30.26F WCI -20
$$

NDZ022-023-025-028>030-036>039-047>053-102100-
SOUTHEAST NORTH DAKOTA

CITY           SKY/WX    TMP DP  RH WIND       PRES   REMARKS
FARGO          CLOUDY     1  -7  68 E6        30.35F WCI -10
JAMESTOWN      CLOUDY    -2  -8  76 SE12      30.22F WCI -20
$$




USA.gov is the U.S. government's official web portal to all federal, state and local government web resources and services.